NOAA 16 DEB, 41525

Orbit data source: Space-Track

NOAA 16 DEB, 41525 is space debris in SSO originally from a launch on Thu, 21 Sep 2000 UTC launched from the Air Force Western Test Range (AFWTR). Debris objects in space refer to the collection of defunct objects orbiting the Earth. Examples of debris include non-operational satellites, rocket bodies, and fragments generated from explosions, collisions, or faulty payload assembly.

Loading next visibility...
Identifier
41525, 2000-055MZ
Orbit
SSO
Country
Flag of USUS
Related business
Manufacturer
Unknown
Mission
Spacecraft
Bus & Motor
Unknown
Mass
Unknown
Launch date (UTC)
2000-09-21 (25 years ago)
Launch vehicle
Unknown
Launch site
Air Force Western Test Range (AFWTR)
Object type
Payload
Rocket body
Debris
Shape & HBR
Unknown shape, 0.1 m
Radar Cross Section
Small (<0.1 m²)

Expand to show TLE details & history
Last TLE update: 1 day ago

TLE from 1 day ago
0 NOAA 16 DEB
1 41525U 00055MZ  25351.63132632  .00003461  00000-0  13818-2 0  9996
2 41525  98.6676  59.1277 0009763 334.8676  25.2030 14.29101949503688
Epoch: 2025-12-17T15:09Z
TLE epoch observation values (Epoch: 2025-12-17T15:09:06.594Z)
Latitude
0.00007°
Longitude
105.3518°
Altitude
791.326 km
Speed
7.461 km/s
True Right ascension
03h 56m 30s
True Declination
0° 00' 00"
Sunlit
Object was in full shadow at epoch
Visualization orbit readout
Latitude
Unknown
Longitude
Unknown
Altitude
Unknown
Speed
Unknown
Apparent Right ascension
Unknown
Apparent Declination
Unknown
Sunlit
N/A
Visualization observer readout
Local Sidereal Time
19:24:49
Azimuth
Unknown
Elevation
Unknown
Doppler factor
Unknown
Orbital elements
Apogee altitude
798.879 km
Perigee altitude
784.879 km
Semi-major axis
7,170.016 km
Eccentricity
0.00098
Inclination
98.6676°
RAAN
59.1277°
Arg. of periapsis
334.8676°
True anomaly
25.25069°
Mean anomaly
25.203°
Eccentric anomaly
25.22684°
Mean motion
3.57489 °/min
Orbital period
100.7 mins
BSTAR
0.0013818
Loading maneuver chart data...
Computing Atmospheric mass density...
Loading historical data...
Loading historical data...
Loading historical data...
Loading historical data...
Loading historical data...
Loading historical data...
Loading historical data...

Documentation

Showing up to 5 results
|